Terug naar catalogus

HULIANWANG DIGUI-39

ActiefCommunicatiePO
NORAD 64960·PAYLOAD·🇨🇳 China

Gelanceerd Jul 27, 2025 vanaf Taiyuan Satellite Launch Center

Loading…

Volgende Passages (komende 24 uur)

TLE

VersSource: Space-Track

Epoch: Sep 14, 2026, 23:25 UTC

1 64960U 25159E   26257.97626025 -.00000064  00000-0 -18261-3 0  9999
2 64960  86.4890 252.0417 0002077  88.2946 271.8425 13.24403689 55016

Volg HULIANWANG DIGUI-39 in realtime met AllMySat

Download on the App Store